Location: Bosmont
(49.7318°N, 3.8587°E)
Time: 21:39:39
(UTC+00:00)

CZ-4 R/B - Pass Details

Date: 08 February 2023
Orbit: 525 x 587 km, 97.7° (Epoch: 21 March)

Event Time Altitude Azimuth Distance (km) Brightness Sun altitude
Rises 17:53:16 0° 137° (SE) 2,784 4.6 -10.4°
Reaches altitude 10° 17:55:37 10° 126° (SE) 1,880 3.6 -10.8°
Maximum altitude 17:59:08 29° 67° (ENE) 1,058 2.2 -11.4°
Drops below altitude 10° 18:02:38 10° 6° (N) 1,860 3.9 -11.9°
Sets 18:04:56 0° 356° (N) 2,749 4.8 -12.3°
